User: anonymous   Login
Location: Unspecified
(0.0000°N, 0.0000°E)
Time: 01:09:31
(UTC+00:00)
Language:

COSMOS 2471 (GLONASS) - Orbit

View from above orbital plane
View from above orbital plane
View from above satellite
View from above satellite

Ground track
Ground track

The orbit data is extracted from the following two-line orbital elements,

1 37372U 11009A   17294.46048402 -.00000040  00000-0  00000+0 0  9998
2 37372  65.4645  60.3667 0007832 222.3375  88.2211  2.13107702 51737
Epoch (UTC): 21 October 2017 11:03:05
Eccentricity: 0.0007832
inclination: 65.4645°
perigee height: 19109 km
apogee height: 19149 km
right ascension of ascending node: 60.3667°
argument of perigee: 222.3375°
revolutions per day: 2.13107702
mean anomaly at epoch: 88.2211°
orbit number at epoch: 5173

The dashed part of the orbit path shows where the satellite is in the earth's shadow,  

DLR